www.pogodaiklimat.ru

Погода и климат >> Архив погоды >> Казахстан >> Астана


АРХИВ ПОГОДЫ в Астане

Время (UTC), дата Ветер
(напр.,м/с)
 
Видим.   Явления Облачность Т
(С)
Тd
(С)
f
(%)
Тe
(С)
Тes
(С)
Комфортность P
(гПа)
Po
(гПа)
Тmin
(С)
Tmax
(С)
R
(мм)
R24
(мм)
S
(см)
00 17.06 штиль 0 10 км 9/8 1000 м
[Sc Ac lent]
+12.6 +9.1 79 +12 +12 по сезону 1006.4 965.6
03 17.06 СЗ 2 10 км 9/0
[Ac cuf]
+17.2 +8.6 57 +18 +20 по сезону 1004.9 964.8
06 17.06 СЗ 2 10 км 9/0
[Ac cast]
+19.6 +6.7 43 +21 +27 комфорт 1004.5 964.7 +12.6
09 17.06 СЗ 2 10 км 10/0
[Ac lent Ci]
+19.6 +7.0 44 +21 +26 комфорт 1004.8 965.0
12 17.06 СЗ 1 10 км 10/0
[Ac lent Ci]
+17.6 +7.1 50 +19 +23 холодно 1004.7 964.6
15 17.06 С 3 10 км 10/0
[Ac lent Ci]
+16.8 +3.5 41 +17 +17 холодно 1004.1 963.9 +21.4
18 17.06 СВ 1 н/о 10/4 1500 м
[Sc Ac lent]
+15.4 +3.5 45 +16 +16 по сезону 1004.5 964.1 +21.4
21 17.06 СВ 1 н/о 10/6 1500 м
[Sc Ac lent]
+13.2 +4.6 56 +14 +14 по сезону 1003.3 962.6
00 18.06 СВ 2 10 км 10/3 1500 м
[Sc Ac lent]
+12.3 +5.0 61 +12 +12 по сезону 1003.0 962.2
03 18.06 СВ 3 10 км 8/3 1500 м
[Sc Ac trans Ci]
+15.7 +6.4 54 +15 +18 прохладно 1001.8 961.6
06 18.06 СВ 3 10 км 4/0
[Ac lent Ci fib]
+20.9 +7.5 42 +22 +32 комфорт 1000.1 960.6 +12.1
09 18.06 СВ 4 10 км 8/3 1500 м
[Cu med, cong Ci]
+23.7 +7.8 36 +24 +30 комфорт 998.2 959.2
12 18.06 С 4 10 км 10/4 1000 м
[Sc Ci sp]
+24.3 +7.5 34 +25 +26 комфорт 997.3 958.4
15 18.06 СВ 3 10 км 9/5 1000 м
[Cb cap Ci ing]
+20.6 +9.8 50 +23 +23 комфорт 998.0 958.6 +25.0
18 18.06 С 2 н/о 10/8 1470 м
[Sc Ci]
+17.8 +10.7 63 +18 +18 по сезону 997.8 958.1 +25.0
21 18.06 СЗ 2 н/о 8/0
[Ac lent]
+14.8 +5.0 52 +15 +15 по сезону 999.2 958.9
00 19.06 З 1 10 км 3/0
[Ci fib]
+10.9 +3.9 62 +11 +11 прохладно 1001.2 960.3
03 19.06 З 3 10 км 6/0
[Ci sp]
+16.4 +8.9 61 +16 +21 прохладно 1001.2 961.1
06 19.06 З 4 10 км 10/8 1500 м
[Sc Ac As Ci]
+19.1 +9.3 53 +20 +21 прохладно 1001.4 961.7 +10.5
09 19.06 З 4 10 км в посл. час ливневой дождь 9/8 1000 м
[Cb cap Ac As]
+21.8 +8.7 43 +23 +24 комфорт 1001.6 962.2
12 19.06 З 4 10 км {ливн. осадки} 8/6 1000 м
[Sc Ac lent]
+22.4 +4.0 30 +22 +23 комфорт 1002.8 963.4
15 19.06 штиль 0 10 км 9/6 1000 м
[Sc Ac lent Ci]
+19.8 +4.7 37 +20 +20 по сезону 1003.7 963.9 +23.3
18 19.06 штиль 0 н/о ясно +15.8 +7.8 59 +16 +16 прохладно 1004.6 964.3 +23.3 0.0
21 19.06 штиль 0 н/о 3/0
[Ci fib]
+13.7 +8.7 72 +13 +13 прохладно 1005.3 964.7
00 20.06 штиль 0 10 км ясно +13.2 +10.6 84 +13 +13 по сезону 1006.1 965.4
03 20.06 З 3 10 км ясно +19.3 +9.2 52 +20 +26 тепло 1006.2 966.3
06 20.06 З 3 10 км 8/8 1000 м
[Cu med, cong]
+22.6 +6.8 36 +23 +26 комфорт 1005.9 966.4 +12.9
09 20.06 З 5 4000 м слабый ливневой дождь 9/9 1000 м
[Cb cap]
+21.2 +11.0 52 +23 +24 комфорт 1005.9 966.3
12 20.06 ЮЗ 2 10 км гроза без осадков {ливн. осадки} 9/9 1000 м
[Cb cap]
+21.0 +11.6 55 +24 +24 комфорт 1005.5 965.9
15 20.06 штиль 0 10 км {гроза, ливн. осадки} 8/8 1000 м
[Cb cap]
+21.1 +12.0 56 +23 +23 комфорт 1005.5 965.9 +25.3
18 20.06 Ю 2 н/о {гроза, ливн. осадки} 9/0
[Ac As]
+19.4 +10.7 57 +21 +21 комфорт 1006.1 966.2 +25.3 7
21 20.06 Ю 2 н/о ясно +16.2 +10.9 71 +16 +16 по сезону 1006.8 966.5
00 21.06 Ю 1 10 км 8/0
[Ci fib]
+14.7 +9.5 71 +15 +16 по сезону 1007.3 966.7
03 21.06 Ю 2 10 км 3/0
[Ac trans]
+22.1 +11.2 50 +24 +30 комфорт 1006.3 966.8
06 21.06 ЮЗ 4 10 км 4/4 1000 м
[Cu med, cong]
+27.4 +9.3 32 +28 +34 жарко 1004.6 965.8 +13.8
09 21.06 ЮЗ 5 10 км 6/6 1000 м
[Cu med, cong]
+29.8 +7.7 25 +29 +32 жарко 1002.4 964.0
12 21.06 ЮЗ 4 10 км 6/3 1000 м
[Cu med, cong Ac lent]
+30.6 +5.8 21 +29 +31 жарко 1001.1 962.8
15 21.06 З 2 10 км 4/0
[Ac trans Ci fib]
+26.4 +8.4 32 +26 +27 жарко 1001.3 962.5 +31.2
18 21.06 С 1 н/о 8/0
[Ac trans]
+21.6 +9.5 46 +23 +23 комфорт 1002.7 963.3 +31.2
21 21.06 Ю 1 н/о 9/0
[Ac und]
+21.7 +9.3 45 +23 +23 комфорт 1000.6 961.2
00 22.06 Ю 1 10 км в посл. час ливневой дождь 10/10 1000 м
[Cb cap]
+19.1 +10.9 59 +21 +21 комфорт 1000.9 961.2
03 22.06 ЮЗ 3 10 км слабый ливневой дождь 9/8 1000 м
[Cb cap Ac lent]
+20.1 +12.6 62 +22 +23 комфорт 1000.8 961.3
06 22.06 З 4 10 км осадки на расстоянии {ливн. осадки} 10/10 1000 м
[Cb cap]
+20.8 +10.6 52 +23 +23 комфорт 1001.7 962.2 +18.6 0.1
09 22.06 Ю 3 10 км в посл. час ливневой дождь 10/8 1000 м
[Cb cap Ac lent]
+17.4 +14.3 82 +17 +18 очень
холодно
1001.4 961.5
12 22.06 ЮЗ 4 10 км {ливн. осадки} 4/3 1000 м
[Cb cap Ci]
+22.4 +14.0 59 +26 +28 жарко 998.9 959.8
15 22.06 З 2 10 км 3/0
[Ac trans]
+21.8 +8.0 41 +23 +23 комфорт 1000.1 960.8 +23.8
18 22.06 Ю 1 н/о ясно +15.8 +7.6 58 +17 +17 по сезону 1002.5 962.3 +23.8 1
21 22.06 штиль 0 н/о ясно +12.6 +7.9 73 +12 +12 холодно 1003.1 962.4
00 23.06 штиль 0 10 км 3/0
[Ci fib]
+12.6 +7.5 71 +12 +13 прохладно 1003.3 962.6
03 23.06 З 2 10 км 3/0
[Ci fib]
+19.5 +7.9 47 +21 +28 комфорт 1003.1 963.3
06 23.06 З 3 10 км 6/0
[Ac cast Ci]
+22.6 +6.8 36 +23 +33 комфорт 1002.4 963.1 +11.8
09 23.06 ЮЗ 3 10 км 8/0
[Ac cast Ci]
+23.5 +6.7 34 +24 +31 комфорт 1001.8 962.6
12 23.06 З 2 10 км 9/0
[Ac As]
+24.6 +8.6 36 +25 +27 комфорт 1001.5 962.5
15 23.06 СЗ 1 10 км 6/0
[Ac As]
+22.6 +9.1 42 +24 +24 комфорт 1002.3 963.0 +25.1
18 23.06 штиль 0 н/о 8/0
[Ac lent Ci]
+16.9 +9.6 62 +17 +17 по сезону 1003.6 963.5 +25.1

 

Местоположение метеостанции Астана (город Астана, Казахстан): широта 51.13 долгота 71.37 высота над уровнем моря 350 м.

В архиве по умолчанию представлена погода в Астане за последнюю неделю. Архивные данные за месяц целиком и за предыдущие месяцы, начиная с января 2011 года, Вы можете получить, выбрав интересующий диапазон дат из раскрывающегося списка и нажав кнопку "Ввод!".


*Определитесь, кто Вы:
робот инопланетянин человек

Внимание! Время в таблицах - всемирное. Для получения местного времени необходимо прибавить поправку, которая в Астане равна 6 ч.

Смотрите также архив погоды в соседних городах и на ближайших метеорологических станциях:

Погода в Астане 2 (город Астана, Казахстан) (4 км)
Погода в Арнасае (Акмолинская область, Казахстан) (51 км)
Погода в Шортанды (Акмолинская область, Казахстан) (65 км)
Погода в Аршалы (Акмолинская область, Казахстан) (73 км)
Погода в Новомарковке (Акмолинская область, Казахстан) (92 км)
Погода в Киевке (Карагандинская область, Казахстан) (99 км)
Погода в Акколе (Акмолинская область, Казахстан) (101 км)
Погода в Осакаровке (Карагандинская область, Казахстан) (105 км)
Погода в Кургальджин (Акмолинская область, Казахстан) (114 км)
Погода в Жалтыре (Акмолинская область, Казахстан) (122 км)

Пояснения к столбцам:

Ветер - указаны скорость ветра в м/с - средняя за 10 мин, порывы в срок и между сроками (в фигурных скобках) и направление, откуда дует ветер: С - северный, СВ - северо-восточный, В - восточный, ЮВ - юго-восточный, Ю - южный, ЮЗ - юго-западный, З - западный, СЗ - северо-западный.
Видимость - горизонтальная дальность видимости в метрах или километрах. При видимости от 1 до 10 км при отсутствии осадков обычно наблюдается дымка, при ухудшении видимости до 1 км и менее - туман. В сухую погоду видимость может ухудшаться дымом, пылью или мглою.
Явления - указаны атмосферные явления, наблюдавшиеся в срок или в последний час перед сроком; фигурными скобками обозначены явления, наблюдавшиеся между сроками (за 1-3 часа до срока); квадратными скобками обозначены град или гололедные отложения с указанием их диаметра в мм.
Облачность - указаны через наклонную черту общая и нижняя облачность в баллах и высота нижней границы облаков в метрах; квадратными скобками обозначены формы облаков: Ci - перистые, Cs - перисто-слоистые, Cc - перисто-кучевые, Ac - высококучевые, As - высокослоистые, Sc - слоисто-кучевые, Ns - слоисто-дождевые, Cu - кучевые, Cb - кучево-дождевые. Подробнее классификацию облаков см. в Атласе облаков (PDF).
T - Температура воздуха - температура, измеренная на высоте 2 м над землей.
Td - Температура точки росы - температура, при понижении до которой содержащийся в воздухе водяной пар достигнет насыщения.
f - Относительная влажность воздуха - влажноcть воздуха, измеренная на высоте 2 м над землей.
Te - Эффективная температура - температура, которую ощущает одетый по сезону человек в тени. Характеристика душности погоды. При расчете учитывается влияние влажности воздуха и скорости ветра на теплоощущения человека.
Tes - Эффективная температура на солнце - температура, которую ощущает человек, с поправкой на солнечный нагрев. Характеристика знойности погоды. Зависит от высоты солнца над горизонтом, облачности и скорости ветра. Ночью, в пасмурную погоду, а также при ветре 12 м/с и более поправка равна нулю.
P - Атмосферное давление - приведенное к уровню моря атмосферное давление.
Po - Атмосферное давление - измеренное на уровне метеостанции атмосферное давление.
Tmin - Минимальная температура - минимум температуры воздуха на высоте 2 м над землей.
Tmax - Максимальная температура - максимум температуры воздуха на высоте 2 м над землей.
R - Количество осадков - Количество выпавших осадков за период времени, мм. При наведении курсора мыши на число - период времени, за который выпало указанное количество осадков.
R24 - Количество осадков - Количество выпавших осадков за 24 часа, мм.
S - Снежный покров - Высота снежного покрова, см. При наведении курсора мыши на число - состояние снежного покрова и степень покрытия местности в баллах.